User: anonymous   Login
Location: Doschendorf
(50.0069°N, 11.0602°E)
Time: 11:59:58
(UTC+00:00)
Language:

Feng Yun 1-1 Rocket - Orbit

View from above orbital plane
View from above orbital plane
View from above satellite
View from above satellite

Ground track
Ground track

The orbit data is extracted from the following two-line orbital elements,

1 19468U 88080B   20028.68468758 +.00000194 +00000-0 +15043-3 0  9996
2 19468 099.2228 039.8844 0070731 269.3696 199.4746 14.03535298607112
Epoch (UTC): 28 January 2020 16:25:57
Eccentricity: 0.0070731
inclination: 99.2228°
perigee height: 830 km
apogee height: 933 km
right ascension of ascending node: 39.8844°
argument of perigee: 269.3696°
revolutions per day: 14.03535298
mean anomaly at epoch: 199.4746°
orbit number at epoch: 60711

The dashed part of the orbit path shows where the satellite is in the earth's shadow,  

DLR